contact:dominique.lefevre@mio.osupytheas.fr, maurice.libes@osupytheas.fr, didier.mallarino@osupytheas.fr
Project:EMSO http://www.emso-fr.org/EMSO-France
Depth: 2436.0 m
Title:EMSO Ligure Ouest : Data MII capteur AQUADOPP
Date,Latitude,Longitude,X_East,Y_North,Z_Up,Amplitude_X,Amplitude_Y,Amplitude_Z,Batterie,SoundSpeed,Heading,Pitch,Roll,Pressure,TIS,Speed,Direction
, degrees North, degrees East, m.s-1, m.s-1,m.s-1, 1, 1, 1, Volt, m.s-1, degree, degree, degree, dbar, degree_C, m.s-1, degree
2020-01-17T00:04:03,42.805,6.029,0.045,0.013,-0.015,103.0,109.0,100.0,13.4,1505.3,322.9,-0.7,1.8,2470.268,13.31,0.046,73.9
2020-01-17T00:07:03,42.805,6.029,0.015,0.012,0.008,103.0,108.0,101.0,13.3,1505.3,324.5,-0.7,1.8,2470.297,13.31,0.019,51.3
2020-01-17T00:10:03,42.805,6.029,0.042,0.018,-0.026,103.0,107.0,102.0,13.3,1505.3,327.6,-0.7,1.9,2470.244,13.32,0.045,66.8
2020-01-17T00:13:03,42.805,6.029,0.063,-0.002,-0.001,105.0,105.0,101.0,13.3,1505.3,323.5,-0.7,1.8,2470.24,13.32,0.063,91.8
2020-01-17T00:16:03,42.805,6.029,-0.002,-0.017,-0.062,103.0,107.0,102.0,13.4,1505.3,326.5,-0.7,1.9,2470.264,13.32,0.017,186.7
2020-01-17T00:19:03,42.805,6.029,-0.006,-0.015,-0.054,104.0,106.0,101.0,13.4,1505.3,324.7,-0.7,1.8,2470.263,13.32,0.016,201.8
2020-01-17T00:22:03,42.805,6.029,0.007,0.0,-0.037,104.0,108.0,102.0,13.4,1505.3,328.1,-0.7,1.9,2470.265,13.33,0.007,90.0
2020-01-17T00:25:03,42.805,6.029,0.032,-0.01,-0.009,106.0,107.0,101.0,13.4,1505.3,326.1,-0.7,1.9,2470.21,13.33,0.033,107.4
2020-01-17T00:28:03,42.805,6.029,0.006,-0.017,-0.033,104.0,109.0,103.0,13.3,1505.3,323.4,-0.7,1.9,2470.248,13.33,0.018,160.6
2020-01-17T00:31:03,42.805,6.029,0.003,-0.022,-0.067,104.0,109.0,102.0,13.4,1505.3,326.8,-0.7,1.8,2470.283,13.33,0.022,172.2
2020-01-17T00:34:03,42.805,6.029,0.039,-0.018,-0.006,105.0,106.0,102.0,13.4,1505.3,325.2,-0.7,1.8,2470.236,13.32,0.042,114.8
2020-01-17T00:37:03,42.805,6.029,0.014,0.011,-0.036,104.0,107.0,102.0,13.3,1505.3,325.4,-0.7,1.8,2470.199,13.33,0.017,51.8
2020-01-17T00:40:03,42.805,6.029,0.016,0.006,-0.027,104.0,108.0,101.0,13.3,1505.3,326.2,-0.7,1.8,2470.241,13.33,0.017,69.4
2020-01-17T00:43:03,42.805,6.029,0.02,-0.008,-0.017,105.0,108.0,103.0,13.3,1505.3,324.3,-0.7,1.8,2470.268,13.33,0.021,111.8
2020-01-17T00:46:03,42.805,6.029,0.025,-0.019,-0.014,105.0,106.0,101.0,13.4,1505.3,324.9,-0.7,1.8,2470.249,13.33,0.031,127.2
2020-01-17T00:49:03,42.805,6.029,0.007,-0.012,-0.045,105.0,109.0,102.0,13.4,1505.3,327.9,-0.7,1.8,2470.271,13.33,0.013,149.7
2020-01-17T00:52:03,42.805,6.029,0.034,0.004,-0.013,106.0,106.0,102.0,13.3,1505.3,323.1,-0.7,1.8,2470.243,13.33,0.034,83.3
2020-01-17T00:55:03,42.805,6.029,0.012,-0.01,-0.019,105.0,107.0,102.0,13.4,1505.3,327.0,-0.7,1.8,2470.253,13.33,0.015,129.8
2020-01-17T00:58:03,42.805,6.029,0.029,0.005,-0.011,105.0,108.0,102.0,13.4,1505.3,326.4,-0.7,1.9,2470.212,13.33,0.029,80.2
2020-01-17T01:04:03,42.805,6.029,0.0,-0.003,-0.021,107.0,109.0,103.0,13.4,1505.3,324.8,-0.7,1.9,2470.271,13.31,0.003,180.0
2020-01-17T01:07:03,42.805,6.029,-0.005,0.015,-0.045,104.0,108.0,102.0,13.4,1505.3,325.4,-0.7,1.8,2470.27,13.31,0.015,341.6
2020-01-17T01:10:03,42.805,6.029,0.024,-0.013,-0.015,105.0,108.0,102.0,13.3,1505.3,327.1,-0.7,1.8,2470.245,13.32,0.027,118.4
2020-01-17T01:13:03,42.805,6.029,-0.001,-0.002,0.001,105.0,110.0,102.0,13.4,1505.3,327.4,-0.7,1.8,2470.268,13.32,0.002,206.6
2020-01-17T01:16:03,42.805,6.029,0.014,0.0,-0.005,105.0,110.0,102.0,13.4,1505.3,324.0,-0.7,1.8,2470.277,13.32,0.014,90.0
2020-01-17T01:19:03,42.805,6.029,0.0,0.018,-0.06,107.0,106.0,103.0,13.4,1505.3,323.3,-0.8,1.8,2470.256,13.33,0.018,0.0
2020-01-17T01:22:03,42.805,6.029,0.027,-0.014,-0.025,105.0,115.0,102.0,13.3,1505.3,324.9,-0.7,1.8,2470.267,13.33,0.03,117.4
2020-01-17T01:25:03,42.805,6.029,0.023,0.008,-0.008,106.0,109.0,103.0,13.3,1505.3,326.9,-0.7,1.8,2470.229,13.33,0.024,70.8
2020-01-17T01:28:03,42.805,6.029,0.029,0.003,-0.035,106.0,108.0,103.0,13.4,1505.3,327.0,-0.7,1.8,2470.213,13.33,0.029,84.1
2020-01-17T01:31:03,42.805,6.029,0.015,-0.009,0.008,105.0,108.0,102.0,13.4,1505.3,328.4,-0.7,1.9,2470.22,13.33,0.017,121.0
2020-01-17T01:34:03,42.805,6.029,0.019,0.0,-0.029,105.0,109.0,102.0,13.4,1505.3,324.8,-0.7,1.9,2470.208,13.33,0.019,90.0
2020-01-17T01:37:03,42.805,6.029,0.044,-0.002,-0.011,105.0,108.0,102.0,13.4,1505.3,327.2,-0.7,1.8,2470.221,13.33,0.044,92.6
2020-01-17T01:40:03,42.805,6.029,0.014,-0.019,-0.045,105.0,109.0,102.0,13.3,1505.3,327.2,-0.7,1.8,2470.278,13.33,0.023,143.6
2020-01-17T01:43:03,42.805,6.029,0.053,-0.005,-0.024,107.0,108.0,102.0,13.3,1505.3,326.0,-0.7,1.8,2470.247,13.33,0.053,95.4
2020-01-17T01:46:03,42.805,6.029,0.033,0.022,0.006,106.0,109.0,102.0,13.4,1505.3,324.7,-0.7,1.9,2470.241,13.33,0.039,56.3
2020-01-17T01:49:03,42.805,6.029,0.037,0.007,-0.016,104.0,110.0,102.0,13.3,1505.3,323.6,-0.7,1.9,2470.237,13.33,0.037,79.3
2020-01-17T01:52:03,42.805,6.029,0.036,0.003,-0.026,105.0,108.0,103.0,13.3,1505.3,324.7,-0.7,1.8,2470.25,13.33,0.036,85.2
2020-01-17T01:55:03,42.805,6.029,0.01,0.012,-0.006,105.0,109.0,102.0,13.3,1505.3,325.6,-0.7,1.8,2470.219,13.33,0.015,39.8
2020-01-17T01:58:03,42.805,6.029,0.026,0.019,-0.023,106.0,109.0,102.0,13.4,1505.3,325.4,-0.7,1.8,2470.184,13.33,0.032,53.8
2020-01-17T02:01:03,42.805,6.029,0.025,-0.009,0.004,106.0,110.0,101.0,13.4,1505.3,326.5,-0.7,1.8,2470.206,13.33,0.026,109.8
2020-01-17T02:04:03,42.805,6.029,0.022,-0.006,-0.031,104.0,109.0,102.0,13.4,1505.3,324.5,-0.7,1.8,2470.199,13.33,0.022,105.3
2020-01-17T02:07:03,42.805,6.029,0.002,0.0,-0.036,105.0,109.0,104.0,13.4,1505.3,324.3,-0.7,1.8,2470.165,13.33,0.002,90.0
2020-01-17T02:10:03,42.805,6.029,0.023,-0.015,-0.007,108.0,109.0,101.0,13.4,1505.3,325.3,-0.7,1.8,2470.254,13.33,0.027,123.1
2020-01-17T02:13:03,42.805,6.029,0.026,-0.006,-0.023,105.0,109.0,107.0,13.4,1505.3,326.4,-0.7,1.8,2470.212,13.33,0.026,103.0
2020-01-17T02:16:03,42.805,6.029,0.036,-0.002,-0.004,105.0,109.0,105.0,13.4,1505.3,326.4,-0.7,1.9,2470.223,13.33,0.036,93.2
2020-01-17T02:19:03,42.805,6.029,0.032,0.003,-0.022,103.0,109.0,102.0,13.3,1505.3,324.7,-0.7,1.8,2470.202,13.33,0.032,84.6
2020-01-17T02:22:03,42.805,6.029,0.036,0.005,0.001,105.0,108.0,101.0,13.3,1505.3,325.5,-0.7,1.8,2470.199,13.33,0.036,82.1
2020-01-17T02:25:03,42.805,6.029,0.048,-0.014,0.001,104.0,109.0,101.0,13.4,1505.3,327.8,-0.7,1.8,2470.214,13.33,0.05,106.3
2020-01-17T02:28:03,42.805,6.029,0.031,0.017,0.0,105.0,107.0,102.0,13.3,1505.3,323.5,-0.7,1.8,2470.206,13.33,0.035,61.3
2020-01-17T02:31:03,42.805,6.029,0.013,-0.018,0.004,106.0,107.0,101.0,13.4,1505.3,323.7,-0.7,1.8,2470.211,13.33,0.022,144.2
2020-01-17T02:34:03,42.805,6.029,0.029,0.02,-0.007,105.0,107.0,103.0,13.3,1505.3,325.2,-0.7,1.9,2470.237,13.33,0.035,55.4
2020-01-17T02:37:03,42.805,6.029,0.033,-0.004,-0.007,105.0,108.0,101.0,13.4,1505.3,325.4,-0.7,1.8,2470.173,13.33,0.033,96.9
2020-01-17T02:40:03,42.805,6.029,0.04,-0.017,0.002,105.0,108.0,103.0,13.4,1505.3,324.5,-0.8,1.8,2470.228,13.33,0.043,113.0
2020-01-17T02:43:03,42.805,6.029,0.025,-0.013,0.018,105.0,107.0,102.0,13.4,1505.3,326.9,-0.7,1.8,2470.196,13.33,0.028,117.5
2020-01-17T02:46:03,42.805,6.029,0.027,-0.008,-0.02,106.0,109.0,102.0,13.3,1505.3,327.4,-0.7,1.8,2470.229,13.33,0.028,106.5
2020-01-17T02:49:03,42.805,6.029,0.062,-0.004,-0.025,105.0,111.0,102.0,13.3,1505.3,328.6,-0.7,1.8,2470.186,13.33,0.062,93.7
2020-01-17T02:52:03,42.805,6.029,0.014,-0.008,-0.017,106.0,107.0,100.0,13.3,1505.3,326.4,-0.7,1.8,2470.213,13.33,0.016,119.7
2020-01-17T02:55:03,42.805,6.029,-0.011,-0.011,-0.023,107.0,108.0,100.0,13.3,1505.3,326.9,-0.7,1.8,2470.223,13.32,0.015,225.0
2020-01-17T02:58:03,42.805,6.029,0.02,-0.005,-0.029,105.0,108.0,102.0,13.4,1505.3,324.5,-0.7,1.8,2470.201,13.32,0.02,104.0
2020-01-17T03:04:03,42.805,6.029,0.04,0.002,-0.004,104.0,109.0,103.0,13.4,1505.3,323.8,-0.8,1.9,2470.227,13.31,0.04,87.1
2020-01-17T03:07:03,42.805,6.029,0.001,-0.007,0.002,105.0,107.0,102.0,13.3,1505.3,325.6,-0.7,1.9,2470.221,13.31,0.007,171.9
2020-01-17T03:10:03,42.805,6.029,0.042,0.003,-0.007,107.0,106.0,102.0,13.4,1505.3,327.2,-0.7,1.8,2470.199,13.32,0.042,85.9
2020-01-17T03:13:03,42.805,6.029,0.053,-0.002,0.0,106.0,108.0,102.0,13.4,1505.3,322.9,-0.7,1.8,2470.212,13.32,0.053,92.2
2020-01-17T03:16:03,42.805,6.029,0.028,-0.01,-0.04,105.0,107.0,103.0,13.4,1505.3,325.9,-0.7,1.9,2470.19,13.32,0.029,109.6
2020-01-17T03:19:03,42.805,6.029,0.032,-0.015,-0.001,105.0,108.0,103.0,13.4,1505.3,328.0,-0.7,1.8,2470.185,13.32,0.035,115.1
2020-01-17T03:22:03,42.805,6.029,0.044,0.01,-0.013,105.0,107.0,103.0,13.4,1505.3,323.5,-0.7,1.8,2470.202,13.32,0.045,77.2
2020-01-17T03:25:03,42.805,6.029,0.043,0.007,-0.006,103.0,109.0,102.0,13.4,1505.3,326.7,-0.7,1.8,2470.216,13.32,0.043,80.8
2020-01-17T03:28:03,42.805,6.029,0.06,-0.012,-0.022,106.0,108.0,101.0,13.4,1505.3,325.4,-0.7,1.8,2470.209,13.32,0.061,101.3
2020-01-17T03:31:03,42.805,6.029,0.018,0.009,-0.024,103.0,108.0,101.0,13.4,1505.3,324.4,-0.7,1.8,2470.195,13.32,0.02,63.4
2020-01-17T03:34:03,42.805,6.029,0.043,-0.016,0.008,104.0,106.0,100.0,13.4,1505.3,325.7,-0.7,1.9,2470.241,13.32,0.045,110.4
2020-01-17T03:37:03,42.805,6.029,0.05,-0.01,-0.016,105.0,107.0,101.0,13.4,1505.3,327.7,-0.7,1.9,2470.175,13.32,0.05,101.3
2020-01-17T03:40:03,42.805,6.029,0.037,0.008,0.016,104.0,108.0,101.0,13.4,1505.3,324.8,-0.7,1.8,2470.207,13.32,0.037,77.8
2020-01-17T03:43:03,42.805,6.029,0.023,-0.01,-0.026,103.0,107.0,101.0,13.4,1505.3,325.9,-0.7,1.8,2470.198,13.32,0.025,113.5
2020-01-17T03:46:03,42.805,6.029,0.023,0.002,-0.019,104.0,108.0,101.0,13.4,1505.3,325.1,-0.7,1.8,2470.223,13.32,0.023,85.0
2020-01-17T03:49:03,42.805,6.029,0.034,-0.001,-0.015,105.0,106.0,101.0,13.4,1505.3,324.5,-0.7,1.9,2470.207,13.32,0.034,91.7
2020-01-17T03:52:03,42.805,6.029,0.041,-0.008,-0.037,102.0,107.0,101.0,13.4,1505.3,327.0,-0.7,1.9,2470.203,13.32,0.041,101.0
2020-01-17T03:55:03,42.805,6.029,0.027,-0.003,-0.012,104.0,106.0,101.0,13.4,1505.3,326.4,-0.7,1.8,2470.157,13.32,0.027,96.3
2020-01-17T03:58:03,42.805,6.029,0.055,0.0,0.03,103.0,108.0,101.0,13.3,1505.3,325.5,-0.7,1.8,2470.204,13.32,0.055,90.0
2020-01-17T04:04:03,42.805,6.029,0.022,-0.038,-0.014,102.0,108.0,100.0,13.3,1505.2,324.5,-0.7,1.8,2470.256,13.3,0.043,149.9
2020-01-17T04:07:03,42.805,6.029,0.032,0.018,-0.006,105.0,107.0,100.0,13.3,1505.3,326.4,-0.7,1.8,2470.202,13.31,0.036,60.6
2020-01-17T04:10:03,42.805,6.029,0.01,-0.01,-0.039,103.0,107.0,100.0,13.4,1505.3,323.4,-0.7,1.8,2470.226,13.32,0.014,135.0
2020-01-17T04:13:03,42.805,6.029,0.067,-0.003,0.007,101.0,108.0,101.0,13.4,1505.3,323.4,-0.7,1.9,2470.202,13.32,0.067,92.6
2020-01-17T04:16:03,42.805,6.029,0.055,0.017,-0.003,104.0,109.0,101.0,13.4,1505.3,325.6,-0.7,1.9,2470.151,13.32,0.057,72.8
2020-01-17T04:19:03,42.805,6.029,0.044,0.004,-0.008,103.0,108.0,101.0,13.4,1505.3,326.4,-0.7,1.8,2470.203,13.32,0.044,84.8
2020-01-17T04:22:03,42.805,6.029,0.044,0.004,-0.014,103.0,107.0,101.0,13.4,1505.3,328.1,-0.7,1.8,2470.214,13.32,0.044,84.8
2020-01-17T04:25:03,42.805,6.029,0.028,-0.009,-0.031,105.0,106.0,101.0,13.4,1505.3,323.0,-0.7,1.8,2470.223,13.32,0.029,107.8
2020-01-17T04:28:03,42.805,6.029,0.022,-0.01,-0.04,104.0,108.0,101.0,13.4,1505.3,326.7,-0.7,1.8,2470.178,13.32,0.024,114.4
2020-01-17T04:31:03,42.805,6.029,0.039,-0.026,-0.021,103.0,106.0,100.0,13.4,1505.3,324.8,-0.7,1.8,2470.19,13.32,0.046,123.7
2020-01-17T04:34:03,42.805,6.029,0.029,0.0,-0.029,102.0,107.0,101.0,13.3,1505.3,327.8,-0.7,1.8,2470.175,13.32,0.028,90.0
2020-01-17T04:37:03,42.805,6.029,0.055,-0.016,-0.02,104.0,107.0,100.0,13.4,1505.3,327.5,-0.7,1.8,2470.158,13.32,0.057,106.2
2020-01-17T04:40:03,42.805,6.029,0.03,0.0,0.016,103.0,106.0,101.0,13.4,1505.3,322.9,-0.7,1.8,2470.164,13.32,0.03,90.0
2020-01-17T04:43:03,42.805,6.029,0.02,0.021,-0.03,102.0,107.0,100.0,13.4,1505.3,324.7,-0.7,1.8,2470.162,13.32,0.028,43.6
2020-01-17T04:46:03,42.805,6.029,0.036,0.007,-0.038,105.0,107.0,99.0,13.3,1505.3,324.3,-0.7,1.8,2470.179,13.32,0.036,79.0
2020-01-17T04:49:03,42.805,6.029,0.046,0.02,-0.001,103.0,108.0,101.0,13.4,1505.3,326.4,-0.7,1.8,2470.142,13.32,0.05,66.5
2020-01-17T04:52:03,42.805,6.029,0.026,0.003,-0.015,103.0,107.0,100.0,13.4,1505.3,328.2,-0.8,1.9,2470.146,13.32,0.026,83.4
2020-01-17T04:55:03,42.805,6.029,0.04,-0.003,-0.016,102.0,107.0,101.0,13.4,1505.3,323.8,-0.7,1.8,2470.163,13.32,0.04,94.3
2020-01-17T04:58:03,42.805,6.029,0.036,0.023,0.012,104.0,107.0,101.0,13.4,1505.3,326.4,-0.7,1.8,2470.184,13.32,0.042,57.4
2020-01-17T05:04:03,42.805,6.029,0.039,-0.015,-0.02,104.0,109.0,101.0,13.4,1505.2,326.8,-0.7,1.8,2470.192,13.3,0.041,111.0
2020-01-17T05:07:03,42.805,6.029,0.015,0.013,-0.038,104.0,108.0,100.0,13.4,1505.3,324.2,-0.7,1.9,2470.17,13.31,0.019,49.1
2020-01-17T05:10:03,42.805,6.029,0.051,-0.013,-0.024,105.0,108.0,101.0,13.3,1505.3,328.1,-0.7,1.8,2470.12,13.32,0.052,104.3
2020-01-17T05:13:03,42.805,6.029,0.036,0.008,0.004,105.0,108.0,101.0,13.4,1505.3,327.0,-0.7,1.8,2470.205,13.32,0.036,77.5
2020-01-17T05:16:03,42.805,6.029,0.004,0.009,-0.01,105.0,110.0,101.0,13.3,1505.3,327.6,-0.7,1.8,2470.195,13.32,0.009,24.0
2020-01-17T05:19:03,42.805,6.029,0.053,-0.011,-0.023,105.0,109.0,102.0,13.4,1505.3,327.0,-0.7,1.8,2470.137,13.32,0.054,101.7
2020-01-17T05:22:03,42.805,6.029,0.044,0.012,0.006,106.0,109.0,103.0,13.3,1505.3,328.5,-0.7,1.8,2470.207,13.32,0.045,74.7
2020-01-17T05:25:03,42.805,6.029,0.041,0.012,0.005,106.0,107.0,102.0,13.3,1505.3,326.0,-0.7,1.8,2470.156,13.32,0.042,73.7
2020-01-17T05:28:03,42.805,6.029,0.027,-0.004,-0.039,107.0,109.0,102.0,13.4,1505.3,324.0,-0.7,1.8,2470.15,13.32,0.027,98.4
2020-01-17T05:31:03,42.805,6.029,0.025,-0.014,-0.022,104.0,108.0,102.0,13.4,1505.3,326.0,-0.6,1.9,2470.166,13.32,0.028,119.3
2020-01-17T05:34:03,42.805,6.029,0.04,-0.014,0.011,105.0,108.0,102.0,13.4,1505.3,327.5,-0.7,1.9,2470.157,13.32,0.042,109.3
2020-01-17T05:37:03,42.805,6.029,0.057,-0.007,-0.015,103.0,109.0,102.0,13.4,1505.3,326.3,-0.8,1.8,2470.199,13.32,0.057,97.0
2020-01-17T05:40:03,42.805,6.029,0.052,-0.012,0.04,104.0,107.0,102.0,13.4,1505.3,328.4,-0.7,1.9,2470.128,13.32,0.053,103.0
2020-01-17T05:43:03,42.805,6.029,0.037,0.0,0.019,102.0,106.0,101.0,13.3,1505.3,327.1,-0.7,1.8,2470.13,13.32,0.037,90.0
2020-01-17T05:46:03,42.805,6.029,0.011,-0.02,-0.031,104.0,109.0,101.0,13.3,1505.3,328.2,-0.7,1.8,2470.181,13.32,0.022,151.2
2020-01-17T05:49:03,42.805,6.029,0.025,-0.001,-0.036,104.0,107.0,101.0,13.4,1505.3,326.6,-0.7,1.8,2470.175,13.32,0.025,92.3
2020-01-17T05:52:03,42.805,6.029,0.023,0.0,-0.015,104.0,107.0,102.0,13.3,1505.3,328.4,-0.7,1.8,2470.161,13.32,0.023,90.0
2020-01-17T05:55:03,42.805,6.029,0.033,0.008,-0.022,104.0,109.0,102.0,13.4,1505.3,326.3,-0.7,1.8,2470.137,13.32,0.033,76.4
2020-01-17T05:58:03,42.805,6.029,0.028,0.004,-0.012,106.0,111.0,103.0,13.4,1505.3,328.6,-0.7,1.8,2470.125,13.32,0.028,81.9
2020-01-17T06:04:03,42.805,6.029,0.039,0.008,-0.047,106.0,111.0,102.0,13.4,1505.2,326.4,-0.7,1.8,2470.176,13.3,0.039,78.4
2020-01-17T06:07:03,42.805,6.029,0.04,0.005,0.005,105.0,108.0,103.0,13.4,1505.3,324.5,-0.7,1.9,2470.172,13.31,0.04,82.9
2020-01-17T06:10:03,42.805,6.029,0.032,-0.005,-0.023,105.0,109.0,101.0,13.4,1505.3,324.8,-0.7,1.8,2470.162,13.32,0.032,98.9
2020-01-17T06:13:03,42.805,6.029,0.035,-0.008,0.004,106.0,108.0,102.0,13.4,1505.3,328.1,-0.7,1.8,2470.142,13.32,0.035,102.9
2020-01-17T06:16:03,42.805,6.029,0.016,-0.003,-0.022,106.0,108.0,102.0,13.3,1505.3,323.2,-0.7,1.8,2470.162,13.32,0.016,100.6
2020-01-17T06:19:03,42.805,6.029,0.035,-0.017,0.011,105.0,110.0,103.0,13.4,1505.3,327.0,-0.7,1.8,2470.159,13.32,0.038,115.9
2020-01-17T06:22:03,42.805,6.029,0.049,-0.011,-0.001,105.0,110.0,101.0,13.4,1505.3,328.6,-0.7,1.8,2470.196,13.32,0.05,102.7
2020-01-17T06:25:03,42.805,6.029,0.023,-0.023,-0.033,106.0,111.0,102.0,13.3,1505.3,324.8,-0.7,1.8,2470.145,13.32,0.032,135.0
2020-01-17T06:28:03,42.805,6.029,0.048,0.015,-0.003,104.0,109.0,101.0,13.4,1505.3,325.7,-0.7,1.8,2470.168,13.32,0.05,72.6
2020-01-17T06:31:03,42.805,6.029,0.033,-0.018,-0.003,106.0,111.0,103.0,13.3,1505.3,328.3,-0.7,1.8,2470.132,13.32,0.037,118.6
2020-01-17T06:34:03,42.805,6.029,0.037,-0.008,0.012,105.0,112.0,102.0,13.4,1505.3,327.4,-0.7,1.8,2470.139,13.32,0.037,102.2
2020-01-17T06:37:03,42.805,6.029,0.034,-0.003,-0.019,107.0,110.0,101.0,13.3,1505.3,324.9,-0.7,1.8,2470.127,13.32,0.034,95.0
2020-01-17T06:40:03,42.805,6.029,0.029,0.0,-0.006,105.0,110.0,103.0,13.3,1505.3,325.9,-0.7,1.8,2470.149,13.32,0.028,90.0
2020-01-17T06:43:03,42.805,6.029,0.026,0.016,-0.058,107.0,110.0,103.0,13.3,1505.3,326.2,-0.7,1.8,2470.181,13.32,0.03,58.4
2020-01-17T06:46:03,42.805,6.029,0.02,-0.014,-0.017,106.0,110.0,102.0,13.4,1505.3,325.6,-0.7,1.9,2470.159,13.32,0.024,125.0
2020-01-17T06:49:03,42.805,6.029,0.039,0.003,0.013,106.0,111.0,103.0,13.4,1505.3,324.3,-0.7,1.9,2470.142,13.32,0.039,85.6
2020-01-17T06:52:03,42.805,6.029,0.025,0.005,-0.025,106.0,110.0,104.0,13.4,1505.3,327.6,-0.7,1.8,2470.182,13.32,0.025,78.7
2020-01-17T06:55:03,42.805,6.029,0.012,-0.011,-0.049,107.0,110.0,102.0,13.4,1505.3,325.3,-0.7,1.8,2470.12,13.32,0.016,132.5
2020-01-17T06:58:03,42.805,6.029,0.055,0.005,-0.01,105.0,109.0,102.0,13.4,1505.3,323.5,-0.7,1.8,2470.162,13.32,0.055,84.8
2020-01-17T07:04:03,42.805,6.029,0.039,0.0,-0.018,106.0,108.0,103.0,13.4,1505.2,327.4,-0.7,1.8,2470.185,13.3,0.039,90.0
2020-01-17T07:07:03,42.805,6.029,0.027,0.018,-0.007,106.0,109.0,103.0,13.3,1505.3,325.7,-0.7,1.8,2470.203,13.31,0.032,56.3
2020-01-17T07:10:03,42.805,6.029,0.04,0.006,0.023,106.0,110.0,104.0,13.3,1505.3,326.9,-0.7,1.8,2470.156,13.31,0.04,81.5
2020-01-17T07:13:03,42.805,6.029,0.035,0.006,-0.02,106.0,109.0,102.0,13.4,1505.3,323.2,-0.7,1.9,2470.173,13.32,0.035,80.3
2020-01-17T07:16:03,42.805,6.029,0.046,-0.006,0.031,106.0,111.0,102.0,13.4,1505.3,326.6,-0.7,1.8,2470.184,13.32,0.046,97.4
2020-01-17T07:19:03,42.805,6.029,0.017,0.008,-0.026,106.0,111.0,103.0,13.3,1505.3,325.6,-0.7,1.8,2470.152,13.32,0.018,64.8
2020-01-17T07:22:03,42.805,6.029,0.018,0.008,-0.015,107.0,111.0,103.0,13.3,1505.3,325.4,-0.7,1.8,2470.188,13.32,0.019,66.0
2020-01-17T07:25:03,42.805,6.029,0.03,0.022,-0.006,108.0,111.0,103.0,13.4,1505.3,325.1,-0.7,1.9,2470.161,13.32,0.037,53.7
2020-01-17T07:28:03,42.805,6.029,0.041,-0.003,-0.032,105.0,110.0,102.0,13.4,1505.3,325.2,-0.7,1.8,2470.139,13.32,0.041,94.2
2020-01-17T07:31:03,42.805,6.029,0.044,-0.003,-0.035,107.0,110.0,103.0,13.3,1505.3,326.3,-0.7,1.8,2470.207,13.32,0.044,93.9
2020-01-17T07:34:03,42.805,6.029,0.049,-0.004,0.008,106.0,110.0,102.0,13.4,1505.3,325.0,-0.7,1.8,2470.177,13.32,0.049,94.7
2020-01-17T07:37:03,42.805,6.029,0.033,-0.003,0.003,105.0,109.0,102.0,13.4,1505.3,326.9,-0.7,1.9,2470.133,13.32,0.033,95.2
2020-01-17T07:40:03,42.805,6.029,0.037,-0.004,-0.011,106.0,110.0,102.0,13.3,1505.3,326.5,-0.7,1.9,2470.148,13.32,0.037,96.2
2020-01-17T07:43:03,42.805,6.029,0.03,0.007,-0.019,105.0,110.0,102.0,13.3,1505.3,325.6,-0.7,1.9,2470.167,13.32,0.03,76.9
2020-01-17T07:46:03,42.805,6.029,0.04,0.004,-0.028,107.0,110.0,102.0,13.4,1505.3,324.1,-0.7,1.8,2470.151,13.32,0.04,84.3
2020-01-17T07:49:03,42.805,6.029,0.029,0.002,-0.002,106.0,109.0,102.0,13.4,1505.3,327.4,-0.7,1.8,2470.162,13.32,0.029,86.1
2020-01-17T07:52:03,42.805,6.029,0.039,-0.007,-0.003,105.0,109.0,102.0,13.4,1505.3,326.6,-0.7,1.8,2470.196,13.32,0.039,100.2
2020-01-17T07:55:03,42.805,6.029,0.021,0.003,-0.002,107.0,108.0,102.0,13.4,1505.3,326.8,-0.7,1.8,2470.165,13.32,0.021,81.9
2020-01-17T07:58:03,42.805,6.029,0.058,-0.006,0.0,108.0,109.0,103.0,13.3,1505.3,325.5,-0.7,1.9,2470.164,13.32,0.058,95.9
2020-01-17T08:04:03,42.805,6.029,0.043,0.0,-0.009,108.0,109.0,102.0,13.4,1505.2,328.0,-0.8,1.8,2470.239,13.3,0.043,90.0
2020-01-17T08:07:03,42.805,6.029,0.025,-0.003,-0.046,108.0,109.0,104.0,13.4,1505.3,326.9,-0.7,1.8,2470.197,13.31,0.025,96.8
2020-01-17T08:10:03,42.805,6.029,0.045,0.003,0.004,106.0,109.0,103.0,13.4,1505.3,324.7,-0.7,1.8,2470.208,13.32,0.045,86.2
2020-01-17T08:13:03,42.805,6.029,0.06,0.0,-0.02,108.0,111.0,103.0,13.4,1505.3,325.2,-0.7,1.8,2470.243,13.32,0.06,90.0
2020-01-17T08:16:03,42.805,6.029,0.039,0.002,-0.023,108.0,111.0,104.0,13.4,1505.3,323.3,-0.7,1.9,2470.157,13.32,0.039,87.1
2020-01-17T08:19:03,42.805,6.029,0.029,-0.001,-0.026,107.0,110.0,103.0,13.4,1505.3,326.3,-0.7,1.8,2470.2,13.32,0.029,92.0
2020-01-17T08:22:03,42.805,6.029,0.045,-0.015,0.0,108.0,111.0,103.0,13.4,1505.3,325.7,-0.7,1.9,2470.225,13.32,0.047,108.4
2020-01-17T08:25:03,42.805,6.029,0.029,0.012,-0.012,107.0,112.0,104.0,13.4,1505.3,325.8,-0.7,1.9,2470.21,13.32,0.031,67.5
2020-01-17T08:28:03,42.805,6.029,0.045,0.01,-0.034,108.0,110.0,104.0,13.4,1505.3,325.2,-0.7,1.9,2470.205,13.32,0.046,77.5
2020-01-17T08:31:03,42.805,6.029,0.031,-0.001,-0.008,109.0,111.0,104.0,13.4,1505.3,327.4,-0.7,1.8,2470.236,13.32,0.031,91.8
2020-01-17T08:34:03,42.805,6.029,0.056,0.0,-0.016,108.0,110.0,104.0,13.4,1505.3,325.0,-0.7,1.8,2470.187,13.32,0.056,90.0
2020-01-17T08:37:03,42.805,6.029,0.043,-0.011,-0.016,109.0,110.0,103.0,13.4,1505.3,326.6,-0.7,1.8,2470.215,13.32,0.044,104.3
2020-01-17T08:40:03,42.805,6.029,0.018,-0.014,0.006,107.0,110.0,103.0,13.4,1505.3,324.9,-0.7,1.8,2470.17,13.32,0.022,127.9
2020-01-17T08:43:03,42.805,6.029,0.026,0.014,0.006,107.0,111.0,105.0,13.4,1505.3,324.1,-0.7,1.8,2470.236,13.32,0.029,61.7
2020-01-17T08:46:03,42.805,6.029,0.029,0.008,0.001,107.0,112.0,104.0,13.4,1505.3,327.0,-0.7,1.8,2470.243,13.32,0.03,74.6
2020-01-17T08:49:03,42.805,6.029,0.028,0.008,0.015,110.0,109.0,104.0,13.4,1505.3,328.0,-0.7,1.8,2470.192,13.32,0.029,74.1
2020-01-17T08:52:03,42.805,6.029,0.048,-0.012,-0.021,107.0,109.0,103.0,13.4,1505.3,323.5,-0.7,1.8,2470.238,13.32,0.049,104.0
2020-01-17T08:55:03,42.805,6.029,0.04,-0.011,-0.028,107.0,109.0,104.0,13.4,1505.3,325.0,-0.7,1.8,2470.257,13.32,0.041,105.4
2020-01-17T08:58:03,42.805,6.029,0.049,0.006,-0.004,108.0,110.0,103.0,13.4,1505.3,326.4,-0.7,1.8,2470.213,13.32,0.049,83.0
2020-01-17T09:04:03,42.805,6.029,0.03,0.003,-0.033,108.0,111.0,104.0,13.4,1505.2,323.0,-0.7,1.8,2470.26,13.3,0.03,84.3
2020-01-17T09:07:03,42.805,6.029,0.035,-0.013,-0.02,108.0,111.0,104.0,13.3,1505.3,326.8,-0.7,1.9,2470.266,13.31,0.037,110.4
2020-01-17T09:10:03,42.805,6.029,0.042,-0.012,-0.015,106.0,110.0,105.0,13.4,1505.3,326.2,-0.7,1.8,2470.224,13.32,0.043,105.9
2020-01-17T09:13:03,42.805,6.029,0.045,-0.01,-0.023,109.0,110.0,104.0,13.4,1505.3,325.1,-0.7,1.8,2470.298,13.32,0.046,102.5
2020-01-17T09:16:03,42.805,6.029,0.034,-0.015,-0.016,108.0,111.0,104.0,13.4,1505.3,325.9,-0.7,1.8,2470.24,13.32,0.037,113.8
2020-01-17T09:19:03,42.805,6.029,0.041,-0.028,-0.012,108.0,112.0,105.0,13.3,1505.3,323.8,-0.7,1.8,2470.254,13.32,0.049,124.3
2020-01-17T09:22:03,42.805,6.029,0.034,0.003,-0.009,108.0,112.0,104.0,13.4,1505.3,324.8,-0.7,1.8,2470.297,13.32,0.034,85.0
2020-01-17T09:25:03,42.805,6.029,0.035,-0.007,0.011,108.0,111.0,105.0,13.4,1505.3,326.6,-0.7,1.8,2470.272,13.32,0.035,101.3
2020-01-17T09:28:03,42.805,6.029,0.029,-0.009,-0.009,107.0,111.0,104.0,13.4,1505.3,325.2,-0.7,1.9,2470.295,13.32,0.03,107.2
2020-01-17T09:31:03,42.805,6.029,0.022,-0.014,0.0,106.0,112.0,104.0,13.3,1505.3,328.0,-0.7,1.8,2470.253,13.32,0.026,122.5
2020-01-17T09:34:03,42.805,6.029,0.024,-0.015,-0.005,108.0,110.0,104.0,13.4,1505.3,327.3,-0.7,1.8,2470.289,13.32,0.028,122.0
2020-01-17T09:37:03,42.805,6.029,0.03,-0.006,-0.013,109.0,111.0,103.0,13.4,1505.3,324.0,-0.7,1.8,2470.31,13.32,0.03,101.3
2020-01-17T09:40:03,42.805,6.029,0.05,-0.02,-0.024,108.0,111.0,105.0,13.4,1505.3,326.2,-0.7,1.8,2470.241,13.32,0.053,111.8
2020-01-17T09:43:03,42.805,6.029,0.032,-0.014,-0.015,107.0,112.0,105.0,13.4,1505.3,327.7,-0.7,1.8,2470.316,13.32,0.034,113.6
2020-01-17T09:46:03,42.805,6.029,0.035,0.018,0.0,109.0,110.0,105.0,13.4,1505.3,325.4,-0.7,1.9,2470.29,13.32,0.039,62.8
2020-01-17T09:49:03,42.805,6.029,0.012,-0.005,-0.001,109.0,111.0,104.0,13.4,1505.3,328.2,-0.7,1.8,2470.277,13.32,0.013,112.6
2020-01-17T09:52:03,42.805,6.029,0.016,-0.005,-0.028,109.0,112.0,104.0,13.4,1505.3,326.5,-0.7,1.8,2470.278,13.32,0.016,107.4
2020-01-17T09:55:03,42.805,6.029,0.023,-0.008,0.001,109.0,111.0,105.0,13.4,1505.3,327.1,-0.7,1.8,2470.321,13.32,0.024,109.2
2020-01-17T09:58:03,42.805,6.029,0.025,-0.007,-0.008,109.0,110.0,105.0,13.4,1505.3,327.4,-0.7,1.9,2470.297,13.32,0.025,105.6